Terminal Aerodrome Forecast
Issued by NWS

Home | Current Version | Previous Version | Text Only | Print | Product List | Glossary On
Versions: 1 2 3 4 5 6 7 8 9 10 11 12 13 14 15 16 17 18 19 20 21 22 23 24 25 26 27 28
000
FTAK31 PANC 052339
TAFAHO
TAF
PAHO 052339Z 0600/0624 24004KT P6SM -RA BKN030
     FM060900 VRB03KT P6SM BCFG FEW005 BKN020
     FM061800 23008KT P6SM FEW020 BKN080=

USA.gov is the U.S. government's official web portal to all federal, state and local government web resources and services.